Wind_Speed
14 14 14 12 12 11 11 11 10 10 9 9 9 8 8 7 7 6 6 5 5 5 5 4 4 3 3 3 3 3 3 3 2 3 3 3 3 4 4 4 4 4 4
16 16 15 15 14 13 12 12 12 11 10 10 9 9 8 8 8 7 6 6 6 5 5 5 4 4 3 2 2 2 2 2 2 2 2 2 2 2 3 3 3 3 3
18 17 17 17 16 15 14 13 13 13 12 11 10 10 9 9 9 9 8 7 7 6 6 5 5 4 3 3 3 2 2 2 1 1 1 1 1 1 1 2 3 2 2
19 19 18 18 18 17 16 16 15 14 14 13 12 11 11 10 10 10 9 9 8 8 7 7 6 6 5 4 4 3 3 2 2 2 1 1 1 0 0 1 1 1 1
22 21 20 20 19 19 18 17 17 16 16 15 14 13 13 12 11 11 11 10 10 9 9 8 7 7 7 6 5 5 4 4 3 3 2 2 2 1 1 1 1 1 1
24 23 23 22 21 21 20 19 18 18 18 17 15 15 14 14 13 13 12 11 11 10 10 9 9 8 8 8 7 7 6 5 5 4 4 3 3 3 2 2 2 2 2
27 26 25 24 23 23 22 21 21 20 20 19 18 17 16 15 15 14 13 13 12 12 11 10 10 9 9 9 9 8 7 6 6 6 5 5 4 4 3 3 3 3 3
30 29 27 26 26 25 24 23 23 22 21 21 20 19 18 17 16 16 15 14 13 12 12 11 11 10 10 10 10 9 8 8 7 7 6 6 5 5 4 4 3 4 3
32 31 30 29 28 27 26 25 24 23 23 22 22 21 20 18 17 17 16 15 15 14 13 13 12 12 11 11 11 10 10 9 8 8 7 7 6 6 5 5 5 5 4
34 34 33 31 30 29 29 28 26 25 25 24 23 23 22 21 20 18 17 17 16 15 15 14 14 13 12 12 12 12 11 10 10 9 9 8 8 7 7 6 6 6 6
36 36 35 34 33 32 31 30 29 28 27 26 26 25 24 23 22 20 19 19 18 17 16 15 15 14 14 13 13 12 12 12 11 11 10 10 9 8 8 7 7 7 6
39 38 37 36 35 34 33 32 31 30 29 29 28 27 26 25 24 23 21 20 20 19 18 17 16 16 15 15 14 14 13 13 12 11 11 11 10 9 9 8 7 7 7
41 41 40 39 38 37 36 34 33 32 31 30 30 29 28 27 26 25 23 22 21 21 20 19 18 17 17 16 16 15 14 14 14 13 12 12 11 10 10 9 8 8 8
41 42 42 41 40 39 39 37 35 34 33 32 31 31 30 29 28 27 26 24 23 23 22 22 21 20 18 18 18 17 16 15 15 14 13 13 12 12 11 11 10 9 9
42 43 43 43 43 42 41 40 38 37 35 34 33 32 32 31 30 29 28 27 26 25 24 24 24 22 21 20 19 18 18 17 16 15 15 14 14 13 13 12 12 11 10
42 43 44 44 45 44 43 42 40 39 38 37 35 34 33 33 33 32 31 30 29 28 26 25 25 25 23 22 21 21 20 19 18 17 17 16 15 14 14 14 13 13 12
42 43 44 46 46 46 45 44 43 42 41 39 37 37 36 35 35 34 33 33 31 30 29 28 27 26 25 24 23 22 22 21 19 19 18 17 17 16 15 15 15 14 14
43 44 45 46 47 47 46 46 45 44 43 42 40 39 38 37 37 36 35 35 33 32 31 31 29 28 27 26 25 25 24 23 22 21 20 19 19 18 17 16 16 16 15
42 43 45 46 47 48 47 47 47 46 45 44 43 41 39 38 38 37 36 36 35 34 33 33 31 30 29 29 28 27 26 26 24 23 22 21 21 20 19 19 18 17 17
43 43 44 47 48 48 48 48 48 47 46 46 45 43 42 40 38 38 38 37 37 36 35 34 33 33 31 31 30 29 28 28 27 25 25 23 23 22 22 21 20 19 19
43 44 44 46 48 49 48 47 47 47 46 46 46 45 44 42 40 40 39 39 39 38 37 37 36 35 34 32 32 31 31 30 29 28 27 26 25 24 24 23 22 22 21
44 44 44 45 48 49 49 48 47 47 47 47 46 46 46 44 41 41 40 40 40 39 39 38 38 37 36 35 34 33 32 31 30 30 29 28 27 27 26 25 24 23 23
43 45 45 46 47 49 50 49 48 48 48 48 47 46 46 46 44 42 41 41 40 40 40 40 39 39 38 37 36 36 35 34 32 31 30 30 29 28 27 26 26 25 24
43 45 45 46 47 49 51 50 49 49 48 47 47 47 47 46 46 43 41 42 41 41 41 41 40 40 40 39 38 37 36 36 35 34 33 32 31 30 29 28 28 27 27
42 44 45 46 48 50 51 51 51 50 49 48 48 49 48 47 47 46 44 42 42 42 42 42 42 42 42 41 39 38 37 37 37 36 36 34 33 32 31 31 30 30 29
41 42 44 45 48 50 49 51 52 52 51 49 49 50 49 48 48 48 47 45 43 42 42 43 43 43 43 42 41 40 39 38 38 37 37 36 36 35 34 33 33 32 31
Wind_Direction
235 232 230 227 223 220 216 215 213 213 210 205 201 198 195 192 189 184 180 182 180 177 173 164 157 152 141 133 123 116 112 109 100 94 87 82 76 72 68 66 65 67 66
236 233 232 230 226 224 222 218 216 216 213 210 208 205 203 202 200 195 192 194 194 191 185 180 176 174 165 157 148 139 134 131 118 104 95 89 79 70 66 63 59 60 61
239 236 233 232 229 227 226 223 220 219 218 215 212 210 208 207 207 204 202 201 205 205 200 196 196 195 193 186 175 165 164 165 159 140 121 106 98 63 53 54 55 60 55
240 238 236 234 231 229 228 226 224 222 221 220 217 216 212 210 210 209 209 209 212 213 212 209 208 211 213 210 205 199 200 206 202 199 207 218 230 263 35 43 48 50 40
239 239 238 235 233 231 229 226 225 225 224 223 221 221 219 215 214 214 216 216 215 216 216 215 217 221 221 219 217 214 216 218 214 220 222 226 238 249 267 300 327 343 348
238 238 237 236 234 232 230 228 227 225 226 226 225 225 226 224 221 219 219 218 217 218 221 221 224 226 225 223 223 222 224 223 220 222 222 230 239 249 260 267 279 293 308
238 238 237 236 234 233 232 230 229 228 228 228 226 226 227 228 228 224 222 221 222 222 223 225 225 227 227 226 227 226 225 224 223 223 225 231 240 249 259 266 270 280 291
238 237 236 235 234 234 233 232 232 231 230 229 228 227 228 228 229 229 226 226 226 227 227 228 227 228 228 228 227 225 225 226 226 226 230 235 241 247 254 257 264 273 283
237 237 236 235 235 234 233 233 233 232 231 230 229 229 229 228 228 229 228 228 229 229 230 230 230 230 229 229 229 228 229 230 230 231 234 235 239 243 252 259 264 269 274
236 236 235 235 235 234 233 233 233 233 232 231 230 230 230 230 229 229 230 230 229 230 231 231 231 230 230 230 231 232 233 233 233 235 236 236 239 244 252 259 263 265 268
236 235 235 235 235 234 234 233 233 233 233 233 232 231 231 230 230 230 231 231 230 230 231 232 231 231 232 232 232 233 235 236 236 236 238 239 242 247 253 259 263 263 265
236 236 235 235 235 235 234 233 233 233 233 234 234 233 232 231 230 230 231 231 231 231 231 232 233 233 233 232 232 233 236 236 235 237 239 241 243 247 250 257 261 261 263
238 237 235 235 235 235 234 233 233 233 233 233 233 232 231 231 231 230 230 231 232 232 231 232 233 233 233 233 233 234 236 236 237 239 241 241 242 245 248 254 258 261 265
239 237 235 234 234 235 235 235 234 234 234 233 233 233 232 231 231 230 230 231 232 232 232 232 233 233 233 234 235 236 237 237 239 241 241 241 242 244 248 252 255 259 263
238 237 235 234 234 234 235 235 235 235 235 235 236 236 234 232 232 232 232 232 233 233 233 233 233 234 233 234 235 237 238 239 240 241 241 242 243 244 248 253 255 257 261
238 237 236 234 233 234 234 234 235 235 235 237 236 237 235 233 233 233 233 234 234 234 234 236 235 235 235 236 237 238 240 241 241 241 240 242 244 246 248 251 253 256 259
238 236 236 235 234 234 234 234 234 235 236 237 238 238 237 234 233 234 234 235 234 235 235 236 236 236 236 236 238 239 240 240 241 239 239 242 244 246 249 251 252 256 259
239 237 236 236 235 234 234 234 235 235 236 237 238 239 237 236 234 234 234 235 235 235 236 236 236 236 236 236 238 239 239 240 240 240 240 242 244 247 249 252 253 256 259
240 239 237 236 235 234 234 234 235 236 237 237 237 238 237 237 235 235 235 235 235 236 236 236 236 237 237 237 237 239 239 241 241 241 242 244 246 247 249 251 253 255 258
241 241 239 237 235 234 234 235 235 235 236 236 236 236 237 237 236 234 234 235 235 236 237 237 237 237 237 237 237 239 240 241 241 241 243 244 247 248 250 251 252 254 257
241 241 239 238 236 235 234 234 235 234 235 235 236 237 237 237 237 236 235 234 235 236 237 237 237 238 237 237 238 239 240 241 242 242 242 245 247 249 251 251 252 253 256
242 241 240 239 236 235 234 233 233 234 234 235 235 236 236 236 237 237 236 235 236 236 236 237 236 237 239 239 239 239 239 240 241 242 243 245 246 248 250 251 251 253 255
242 242 242 239 236 234 233 232 232 233 233 234 235 236 237 236 237 237 237 236 236 236 236 236 236 237 238 239 239 239 240 240 240 241 243 245 246 248 249 250 251 253 255
243 243 242 239 235 234 233 232 232 233 233 235 236 236 236 237 237 237 238 237 237 237 236 236 236 235 237 239 239 240 241 240 241 241 243 245 246 247 249 251 252 254 256
245 244 241 238 234 233 233 232 232 232 233 234 235 236 236 236 237 237 237 238 238 237 236 236 236 236 237 238 239 240 241 241 242 243 244 245 246 248 250 251 252 254 256
245 244 241 237 235 234 233 233 232 232 233 234 234 236 237 237 237 238 238 238 238 238 238 237 236 236 236 237 239 240 241 242 242 243 245 246 247 249 250 251 252 254 256
Height
5850 5850 5851 5852 5853 5853 5854 5855 5855 5856 5857 5857 5858 5859 5860 5860 5861 5861 5861 5862 5862 5863 5863 5863 5864 5864 5864 5864 5864 5864 5864 5864 5864 5864 5864 5864 5863 5863 5862 5862 5861 5861 5860
5847 5848 5849 5850 5850 5851 5852 5853 5854 5855 5855 5856 5857 5858 5858 5859 5860 5860 5860 5861 5862 5862 5863 5863 5863 5864 5864 5864 5864 5864 5864 5864 5864 5864 5864 5864 5863 5863 5863 5862 5862 5861 5860
5844 5845 5846 5847 5848 5849 5850 5851 5852 5853 5854 5855 5855 5856 5857 5858 5858 5859 5859 5860 5861 5861 5862 5862 5863 5863 5863 5864 5864 5864 5864 5864 5864 5864 5864 5863 5863 5863 5863 5862 5862 5861 5861
5840 5841 5843 5844 5845 5846 5847 5848 5850 5851 5852 5852 5854 5855 5855 5856 5857 5857 5858 5859 5859 5860 5861 5861 5862 5862 5862 5863 5863 5863 5863 5863 5863 5863 5863 5863 5863 5862 5862 5862 5862 5861 5861
5836 5837 5839 5840 5842 5843 5844 5845 5847 5848 5849 5850 5851 5853 5853 5854 5855 5856 5856 5857 5858 5858 5859 5860 5860 5861 5861 5862 5862 5862 5862 5863 5863 5863 5862 5862 5862 5862 5862 5862 5861 5861 5861
5832 5833 5835 5836 5838 5839 5841 5842 5843 5845 5846 5847 5849 5850 5851 5852 5853 5853 5854 5855 5856 5857 5857 5858 5859 5859 5860 5860 5860 5861 5861 5861 5861 5862 5862 5862 5862 5861 5861 5861 5861 5860 5860
5826 5828 5830 5832 5834 5835 5837 5838 5840 5841 5843 5844 5846 5847 5848 5849 5850 5851 5852 5853 5854 5855 5855 5856 5857 5857 5858 5858 5859 5859 5860 5860 5860 5860 5861 5861 5861 5861 5861 5860 5860 5860 5859
5820 5822 5825 5827 5829 5831 5833 5834 5836 5837 5839 5841 5842 5844 5845 5846 5847 5848 5849 5850 5851 5852 5853 5854 5855 5855 5856 5856 5857 5858 5858 5859 5859 5859 5859 5860 5860 5860 5860 5859 5859 5859 5859
5814 5816 5818 5821 5823 5825 5827 5830 5832 5833 5835 5837 5838 5840 5841 5843 5844 5845 5846 5847 5849 5850 5851 5851 5852 5853 5854 5854 5855 5856 5856 5857 5857 5857 5858 5858 5858 5858 5858 5858 5858 5858 5858
5806 5809 5812 5814 5817 5819 5822 5824 5827 5829 5831 5832 5834 5836 5837 5839 5840 5842 5843 5844 5845 5847 5848 5849 5850 5851 5851 5852 5853 5854 5854 5855 5855 5856 5856 5856 5856 5857 5857 5857 5857 5857 5856
5799 5802 5804 5807 5810 5813 5815 5818 5821 5823 5825 5827 5829 5831 5832 5834 5836 5838 5839 5840 5842 5843 5844 5846 5847 5848 5849 5849 5850 5851 5852 5852 5853 5854 5854 5854 5855 5855 5855 5855 5855 5855 5855
5790 5793 5797 5800 5803 5806 5808 5811 5814 5817 5819 5821 5824 5825 5827 5829 5831 5833 5835 5836 5838 5839 5841 5842 5843 5844 5845 5846 5847 5848 5849 5850 5850 5851 5852 5852 5853 5853 5853 5853 5853 5853 5853
5781 5785 5788 5792 5795 5798 5801 5804 5807 5810 5813 5815 5817 5820 5822 5824 5826 5828 5830 5832 5833 5835 5836 5838 5839 5841 5842 5843 5844 5845 5846 5847 5848 5848 5849 5850 5850 5851 5851 5851 5851 5851 5851
5771 5775 5779 5782 5786 5790 5793 5797 5800 5803 5806 5809 5811 5813 5816 5818 5820 5823 5825 5827 5828 5830 5832 5833 5835 5837 5838 5840 5841 5842 5843 5844 5845 5846 5846 5847 5848 5848 5849 5849 5849 5849 5849
5760 5764 5769 5773 5777 5780 5785 5788 5792 5795 5799 5802 5804 5807 5809 5812 5814 5817 5819 5821 5823 5825 5826 5828 5830 5832 5834 5835 5837 5838 5839 5841 5842 5843 5843 5844 5845 5846 5846 5846 5847 5847 5847
5750 5754 5758 5762 5767 5771 5775 5780 5783 5787 5791 5794 5797 5799 5802 5805 5808 5810 5813 5815 5817 5819 5821 5822 5824 5827 5829 5831 5832 5834 5835 5837 5838 5839 5840 5841 5842 5842 5843 5843 5844 5844 5844
5739 5743 5747 5752 5756 5761 5765 5770 5774 5778 5782 5786 5789 5792 5794 5797 5800 5803 5806 5808 5810 5812 5815 5817 5819 5821 5824 5826 5828 5829 5831 5832 5834 5835 5836 5837 5838 5839 5839 5840 5841 5841 5841
5727 5731 5735 5740 5745 5750 5755 5760 5764 5768 5772 5776 5779 5783 5785 5788 5791 5794 5797 5800 5803 5805 5808 5810 5813 5815 5818 5820 5822 5824 5826 5827 5829 5831 5832 5833 5834 5835 5836 5837 5837 5837 5838
5716 5720 5724 5728 5733 5739 5744 5749 5754 5758 5762 5765 5769 5773 5776 5779 5782 5785 5788 5792 5795 5798 5800 5803 5806 5809 5811 5814 5816 5818 5820 5822 5824 5826 5827 5829 5830 5831 5832 5832 5833 5833 5834
5705 5708 5712 5716 5721 5727 5732 5737 5742 5747 5751 5755 5759 5763 5766 5770 5773 5776 5779 5783 5786 5789 5792 5796 5799 5801 5804 5807 5809 5812 5814 5816 5818 5820 5822 5823 5825 5826 5827 5828 5828 5829 5829
5693 5697 5700 5704 5709 5715 5720 5726 5731 5736 5741 5745 5749 5753 5757 5760 5764 5767 5770 5773 5777 5780 5784 5787 5791 5793 5796 5799 5802 5805 5807 5810 5812 5814 5816 5818 5819 5821 5822 5823 5823 5824 5825
5681 5685 5689 5693 5697 5703 5708 5714 5720 5725 5730 5734 5739 5743 5747 5751 5754 5758 5761 5764 5767 5771 5775 5778 5782 5785 5788 5792 5795 5798 5800 5803 5805 5807 5809 5811 5813 5815 5816 5817 5818 5819 5819
5670 5673 5677 5681 5685 5690 5696 5702 5708 5713 5719 5723 5728 5733 5737 5740 5744 5748 5752 5755 5758 5762 5765 5769 5773 5776 5780 5783 5787 5790 5793 5795 5798 5801 5803 5805 5807 5808 5810 5811 5812 5813 5814
5658 5661 5664 5668 5673 5678 5683 5690 5696 5703 5708 5713 5719 5723 5726 5730 5734 5738 5742 5745 5749 5752 5756 5760 5763 5767 5770 5774 5778 5781 5785 5787 5790 5793 5795 5797 5799 5801 5803 5805 5806 5807 5807
5645 5648 5651 5655 5661 5666 5671 5678 5685 5691 5697 5702 5707 5712 5716 5720 5724 5728 5732 5735 5739 5743 5746 5750 5753 5757 5761 5764 5769 5773 5776 5779 5781 5785 5787 5790 5792 5794 5796 5797 5799 5800 5801
5633 5635 5638 5643 5648 5654 5660 5666 5673 5680 5686 5691 5696 5701 5706 5710 5714 5718 5722 5726 5730 5733 5737 5740 5744 5748 5752 5755 5759 5763 5767 5770 5773 5776 5779 5781 5783 5786 5788 5789 5791 5792 5793